Regional Weather Roundup
Issued by NWS

Home | Current Version | Previous Version | Text Only | Print | Product List | Glossary On
Versions: 1 2 3 4 5 6 7 8 9 10 11 12 13 14 15 16 17 18 19 20 21 22 23 24 25 26 27 28 29 30 31 32 33 34 35 36 37 38 39 40 41 42 43 44 45 46 47 48 49 50
000
ASUS45 KCYS 301510
RWRWY

WYOMING REGIONAL WEATHER ROUNDUP
NATIONAL WEATHER SERVICE CHEYENNE WY
900 AM MDT WED JUL 30 2014

NOTE:  "FAIR" INDICATES FEW OR NO CLOUDS BELOW 12,000 FEET
WITH NO SIGNIFICANT WEATHER AND/OR OBSTRUCTIONS TO VISIBILITY.

WYZ001-301600-
YELLOWSTONE NATIONAL PARK

CITY           SKY/WX    TMP DP  RH WIND       PRES   REMARKS
LK YELLOWSTONE   N/A     57  48  72 CALM      30.49S
W YELLOWSTONE  NOT AVBL

$$
WYZ002>013-054>058-071-098>099-301600-
NORTHERN WYOMING

CITY           SKY/WX    TMP DP  RH WIND       PRES   REMARKS
JACKSON        CLOUDY    55  48  76 N12       30.38
CODY           NOT AVBL
GREYBULL       MOSUNNY   64  54  69 CALM      30.29R
WORLAND        PTSUNNY   62  58  86 SW3       30.30S
SHERIDAN       MOSUNNY   68  50  52 VRB3      30.28S
BUFFALO        MOSUNNY   70  43  37 N7        30.33R
GILLETTE         N/A     70  53  54 W7        30.27S
HULETT         FAIR      66  54  63 MISG      30.29
NEWCASTLE      FAIR      64  52  63 W3        30.29

$$
WYZ014>020-022>026-101>103-301600-
CENTRAL WYOMING

CITY           SKY/WX    TMP DP  RH WIND       PRES   REMARKS
BIG PINEY      LGT RAIN  56  52  86 N5        30.41R
PINEDALE       CLOUDY    54  50  87 NW8       30.42R
DUBOIS         FAIR      52  45  76 NW5       30.45R
LANDER         PTSUNNY   60  56  86 CALM      30.36R
RIVERTON       MOSUNNY   62  54  74 CALM      30.37R
CASPER         PTSUNNY   59  53  80 CALM      30.35R
DOUGLAS        CLOUDY    60  55  83 CALM      30.35R

$$
WYZ021-027>030-104>119-301600-
SOUTHERN WYOMING

CITY           SKY/WX    TMP DP  RH WIND       PRES   REMARKS
EVANSTON       CLOUDY    55  53  93 E12       30.37R
KEMMERER       RAIN      52  50  93 NE10      30.40S
FORT BRIDGER   CLOUDY    55  55 100 E13       30.40R
ROCK SPRINGS   CLOUDY    58  52  80 E17       30.37R
DIXON          CLOUDY    59  56  89 CALM      30.34S
RAWLINS        LGT RAIN  55  53  93 E14       30.38R
SARATOGA       CLOUDY    55  52  88 CALM      30.37S
LARAMIE        LGT RAIN  54  50  86 CALM      30.40R
CHEYENNE       LGT RAIN  58  54  86 CALM      30.36S
TORRINGTON     CLOUDY    64  56  75 N6        30.28S
PINE BLUFFS    CLOUDY    61  59  94 E5        30.33S

$$


USA.gov is the U.S. government's official web portal to all federal, state and local government web resources and services.